Flag for India Weather past 2 weeks in Jaipur, Rajasthan, India

Now
95 °F

Scattered clouds.


Feels Like: 105 °F
Forecast: 81 / 97 °F
Wind: 12 mph from West

Location: Jaipur / Sanganer

Current Time: Jul 1, 2015 at 5:57:30 PM

Latest Report: Jul 1, 2015 at 5:00 PM


Visibility: 2 mi

Pressure: 29.62 "Hg

Humidity: 50%

Dew point: 73 °F

Location of JaipurLocation

Historic Weather in Jaipur — Graph

°F

Jaipur temperature yesterday

Maximum temperature yesterday: 90 °F (at 1:00 PM)
Minimum temperature yesterday: 75 °F (at 8:00 PM)
Average temperature yesterday: 80 °F

Past Weeks' High & Low Weather Summary

 TemperatureHumidityPressure
High106 °F (Jun 19, 12:30 PM)100% (Jun 25, 3:00 AM)29.77 "Hg (Jun 25, 3:00 AM)
Low75 °F (Jun 29, 9:00 PM)20% (Jun 19, 5:00 PM)29.39 "Hg (Jun 22, 5:30 PM)
Average91 °F55%29.55 "Hg
* Reported Jun 16 6:00 PM — Jul 1 4:00 PM, Jaipur, Weather by CustomWeather, © 2015

Note: Actual official high and low records may vary slightly from our data, if they occured in-between our weather recording intervals... More about our weather records

Advertising

Jaipur weather history for previous 24 hours

 ConditionsComfort  
Time TempWeatherWind HumidityBarometerVisibility
4:00 PM
Wed, Jul 1
95 °FScattered clouds.9 mph50%29.62 "Hg2 mi
3:00 PM95 °FScattered clouds.12 mph50%29.65 "Hg2 mi
2:00 PM95 °FScattered clouds.12 mph53%29.68 "Hg2 mi
1:00 PM93 °FHaze.13 mph53%29.71 "Hg1 mi
12:30 PM91 °FHaze.13 mph56%29.71 "Hg1 mi
12:00 PM91 °FScattered clouds.13 mph63%29.71 "Hg1 mi
11:00 AM88 °FHaze.12 mph70%29.74 "Hg1 mi
10:30 AM88 °FHaze.10 mph70%29.74 "Hg1 mi
10:00 AM86 °FHaze.10 mph70%29.74 "Hg1 mi
9:00 AM84 °FHaze.6 mph79%29.74 "Hg1 mi
8:00 AM81 °FFog.5 mph84%29.71 "Hg1 mi
7:00 AM79 °FFog.No wind94%29.71 "Hg1 mi
6:00 AM77 °FFog.No wind94%29.68 "Hg1 mi
5:30 AM77 °FFog.No wind94%29.65 "Hg1 mi
1:00 AM77 °FFog.5 mph94%29.71 "Hg1 mi
12:00 AM77 °FFog.5 mph94%29.71 "Hg1 mi
10:00 PM
Tue, Jun 30
77 °FPartly cloudy.No wind94%29.71 "Hg1 mi
8:00 PM75 °FPartly cloudy.1 mph100%29.71 "Hg1 mi
7:00 PM77 °FLight rain. Broken clouds.7 mph94%29.65 "Hg1 mi
6:00 PM77 °FRain. Broken clouds.7 mph89%29.71 "Hg1 mi
5:00 PM79 °FThunderstorms. Broken clouds.6 mph89%29.71 "Hg1 mi
Weather by CustomWeather, © 2015

See weather overviewHow to use our weather pages